EW1454 Weather Reports


Display with metric or nautical units.
time (UTC)temp
F
wind
direction
speed
MPH
gust
MPH
rain 1hr
in
rain 24hr
in
rain mn
in
humidity
%
barometer
mb
20260509201132 65 6 2.0 15.0 0.00 0.16 0.14 65 1007.4
20260509200848 66 290 2.0 15.0 0.00 0.16 0.14 64 1007.6
20260509200126 66 99 4.0 9.0 0.00 0.16 0.14 67 1007.4
20260509195632 64 208 3.0 11.0 0.00 0.17 0.14 71 1007.7
20260509195344 65 278 3.0 11.0 0.00 0.17 0.14 68 1007.8
20260509194626 64 82 2.0 10.0 0.00 0.17 0.14 69 1007.8
20260509194131 65 208 3.0 12.0 0.00 0.17 0.14 70 1008.0
20260509193626 65 169 1.0 12.0 0.00 0.17 0.14 71 1008.1
20260509193345 64 268 3.0 10.0 0.00 0.17 0.14 71 1008.0
20260509193120 64 258 3.0 7.0 0.00 0.17 0.14 72 1008.0
20260509192125 64 133 6.0 11.0 0.00 0.17 0.14 74 1008.0
20260509191626 63 204 6.0 11.0 0.00 0.17 0.14 74 1008.1
20260509191129 62 232 2.0 9.0 0.00 0.17 0.14 76 1008.2
20260509190625 62 176 2.0 13.0 0.00 0.17 0.14 77 1008.3
20260509190125 63 279 0.0 16.0 0.00 0.17 0.14 75 1008.3
20260509185630 63 283 4.0 16.0 0.00 0.17 0.14 72 1008.3
20260509185125 63 162 2.0 14.0 0.00 0.17 0.14 75 1008.2
20260509184626 62 172 1.0 11.0 0.00 0.17 0.14 78 1008.3
20260509184131 61 205 1.0 11.0 0.00 0.17 0.14 77 1008.5
20260509183626 62 196 2.0 8.0 0.00 0.17 0.14 77 1008.4
20260509183126 62 145 3.0 6.0 0.00 0.17 0.14 78 1008.5
20260509182629 61 175 0.0 6.0 0.00 0.17 0.14 81 1008.6
20260509182126 60 33 0.0 6.0 0.00 0.17 0.14 82 1008.8
20260509181626 60 204 1.0 6.0 0.00 0.17 0.14 82 1008.8
20260509181130 59 161 2.0 8.0 0.00 0.17 0.14 83 1008.8
20260509180625 58 161 2.0 8.0 0.00 0.17 0.14 84 1008.7
20260509180126 59 0 0.0 8.0 0.00 0.17 0.14 83 1008.6
20260509175629 59 250 7.0 8.0 0.00 0.17 0.14 82 1008.8
20260509175127 58 206 2.0 9.0 0.00 0.17 0.14 83 1008.7
20260509174626 58 150 4.0 14.0 0.00 0.17 0.14 84 1008.8
20260509174131 58 268 3.0 14.0 0.00 0.17 0.14 84 1008.6
20260509173627 58 197 2.0 10.0 0.00 0.17 0.14 84 1008.7
20260509173127 58 134 4.0 9.0 0.00 0.17 0.14 83 1008.5
20260509172629 58 184 2.0 9.0 0.00 0.17 0.14 84 1008.5
20260509172400 58 281 2.0 8.0 0.00 0.17 0.14 84 1008.5
20260509171626 58 198 4.0 9.0 0.00 0.17 0.14 86 1008.4
20260509171131 58 248 3.0 9.0 0.00 0.17 0.14 87 1008.4
20260509170626 58 151 7.0 10.0 0.00 0.17 0.14 87 1008.5
20260509170347 58 87 2.0 11.0 0.00 0.17 0.14 86 1008.3
20260509165631 59 201 0.0 11.0 0.00 0.17 0.14 86 1008.4
20260509165127 59 223 3.0 10.0 0.00 0.17 0.14 90 1008.6
20260509164626 57 247 6.0 8.0 0.00 0.17 0.14 89 1008.5
20260509164332 57 156 4.0 7.0 0.01 0.17 0.14 92 1008.3
20260509164223 57 245 5.0 8.0 0.01 0.17 0.14 89 1008.3
20260509163126 56 33 2.0 6.0 0.01 0.17 0.14 94 1008.4
20260509162630 56 51 0.0 7.0 0.00 0.16 0.14 95 1008.4
20260509162125 55 133 1.0 7.0 0.01 0.16 0.14 96 1008.6
20260509161626 55 145 2.0 5.0 0.01 0.16 0.14 97 1008.3
20260509161130 54 174 3.0 6.0 0.01 0.16 0.14 97 1008.6
20260509160627 53 128 1.0 6.0 0.01 0.16 0.14 97 1008.6
20260509160347 53 79 0.0 4.0 0.01 0.16 0.14 97 1008.4
20260509155629 53 228 0.0 6.0 0.01 0.16 0.14 97 1008.6
20260509155126 53 79 2.0 6.0 0.01 0.16 0.14 98 1008.4
20260509154901 53 108 2.0 4.0 0.02 0.16 0.14 98 1008.5
20260509154130 53 293 1.0 5.0 0.01 0.16 0.14 98 1008.6
20260509153628 53 47 1.0 5.0 0.02 0.16 0.13 98 1008.4
20260509153127 53 91 1.0 5.0 0.02 0.16 0.13 98 1008.4
20260509152629 52 265 1.0 6.0 0.02 0.16 0.13 98 1008.3
20260509152347 52 242 0.0 6.0 0.01 0.15 0.13 98 1007.9
20260509151626 52 66 1.0 5.0 0.01 0.15 0.13 98 1008.3
20260509151358 53 80 0.0 8.0 0.01 0.15 0.13 98 1008.2
20260509150626 53 13 0.0 9.0 0.01 0.15 0.13 98 1008.5
20260509150345 53 167 2.0 9.0 0.01 0.15 0.13 98 1008.7
20260509145629 52 303 2.0 7.0 0.01 0.15 0.13 98 1008.5
20260509145127 53 288 2.0 7.0 0.01 0.15 0.13 98 1008.5
20260509144626 52 224 5.0 9.0 0.01 0.15 0.12 98 1008.7
20260509144129 52 121 4.0 9.0 0.01 0.15 0.12 98 1008.4
20260509143627 52 237 2.0 9.0 0.01 0.14 0.12 98 1008.4
20260509143126 52 297 5.0 7.0 0.01 0.14 0.12 98 1008.4
20260509142631 52 256 0.0 7.0 0.02 0.14 0.12 98 1008.4
20260509142348 52 192 3.0 7.0 0.02 0.14 0.12 98 1008.6
20260509141901 52 253 0.0 6.0 0.02 0.14 0.11 98 1008.4
20260509141129 52 120 2.0 7.0 0.02 0.14 0.11 98 1008.4
20260509140626 52 159 0.0 7.0 0.02 0.14 0.11 98 1008.4
20260509140126 52 183 2.0 9.0 0.02 0.14 0.11 98 1008.7
20260509135628 52 62 2.0 9.0 0.03 0.14 0.11 98 1008.5
20260509135125 52 154 3.0 9.0 0.03 0.14 0.11 98 1008.7
20260509134626 52 267 1.0 9.0 0.03 0.13 0.11 98 1008.5
20260509134349 51 104 4.0 11.0 0.03 0.13 0.11 98 1008.7
20260509134110 51 198 1.0 11.0 0.03 0.13 0.11 98 1008.7
20260509133129 51 135 4.0 9.0 0.03 0.13 0.11 98 1008.6
20260509132629 51 189 1.0 8.0 0.03 0.13 0.10 98 1008.7
20260509132126 51 358 2.0 7.0 0.03 0.12 0.10 98 1008.7
20260509131626 51 175 2.0 6.0 0.03 0.12 0.09 98 1008.7
20260509131129 51 147 1.0 6.0 0.04 0.12 0.09 98 1008.5
20260509130625 51 149 0.0 3.0 0.04 0.11 0.09 98 1008.9
20260509130126 51 50 2.0 8.0 0.04 0.11 0.09 98 1008.9
20260509125629 51 95 1.0 8.0 0.04 0.11 0.09 98 1008.8
20260509125128 51 76 1.0 7.0 0.04 0.11 0.09 98 1008.8
20260509124627 51 31 2.0 7.0 0.04 0.11 0.09 98 1009.0
20260509124129 51 107 0.0 6.0 0.04 0.10 0.08 98 1008.7
20260509123850 51 160 2.0 6.0 0.03 0.10 0.07 98 1008.7
20260509123126 51 210 1.0 6.0 0.04 0.10 0.07 98 1009.0
20260509122629 51 151 1.0 6.0 0.04 0.09 0.07 97 1009.0
20260509122127 51 110 0.0 6.0 0.04 0.09 0.07 97 1009.2
20260509121626 51 149 0.0 9.0 0.04 0.09 0.06 97 1009.1
20260509121129 51 110 3.0 9.0 0.03 0.08 0.06 97 1009.0
20260509120626 51 337 2.0 6.0 0.03 0.07 0.05 97 1009.0
20260509120357 51 143 0.0 6.0 0.03 0.07 0.05 97 1009.0
20260509115629 51 157 0.0 5.0 0.03 0.07 0.05 97 1008.9
20260509115351 51 298 1.0 7.0 0.03 0.07 0.05 97 1008.8
20260509114626 51 122 0.0 7.0 0.02 0.07 0.04 97 1008.9
20260509114130 51 209 2.0 6.0 0.02 0.07 0.04 96 1008.8
20260509113359 51 137 2.0 8.0 0.02 0.06 0.04 96 1008.9
20260509112631 51 263 2.0 9.0 0.01 0.06 0.03 95 1008.8
20260509112126 51 154 1.0 9.0 0.01 0.05 0.03 94 1008.8
20260509111626 51 141 2.0 7.0 0.00 0.05 0.02 94 1008.7
20260509111130 51 121 2.0 7.0 0.01 0.05 0.02 94 1008.8
20260509110626 51 147 2.0 6.0 0.01 0.05 0.02 94 1008.5
20260509110126 51 161 0.0 5.0 0.01 0.05 0.02 94 1008.4
20260509105629 51 130 2.0 6.0 0.01 0.04 0.02 94 1008.7
20260509105348 51 196 1.0 6.0 0.01 0.04 0.02 94 1008.3
20260509104626 51 57 1.0 8.0 0.01 0.04 0.02 94 1008.6
20260509104130 51 83 0.0 8.0 0.01 0.04 0.02 94 1008.7
20260509103854 51 182 2.0 8.0 0.01 0.04 0.02 94 1008.4
20260509103356 51 251 3.0 8.0 0.01 0.04 0.02 94 1008.7
20260509102629 51 100 0.0 6.0 0.01 0.04 0.02 95 1008.6
20260509102126 51 227 2.0 7.0 0.01 0.04 0.02 94 1008.3
20260509101625 51 290 2.0 7.0 0.02 0.04 0.02 94 1008.6
20260509101129 51 98 2.0 6.0 0.01 0.04 0.02 95 1008.7
20260509100625 51 147 3.0 6.0 0.01 0.04 0.02 95 1008.6
20260509100125 51 112 2.0 5.0 0.01 0.04 0.02 95 1008.7
20260509095629 50 339 2.0 6.0 0.01 0.04 0.01 96 1008.6
20260509095127 50 168 1.0 6.0 0.01 0.04 0.01 97 1008.6
20260509094840 50 135 4.0 5.0 0.01 0.03 0.01 97 1008.7
20260509094726 50 140 4.0 5.0 0.01 0.04 0.01 97 1008.8
20260509093629 50 8 1.0 8.0 0.01 0.03 0.01 98 1008.8
20260509093619 50 149 4.0 8.0 0.01 0.03 0.01 98 1009.0
20260509092629 49 334 0.0 3.0 0.01 0.03 0.01 99 1008.8
20260509092128 49 152 0.0 3.0 0.01 0.03 0.01 99 1009.0
20260509091626 49 174 0.0 3.0 0.00 0.03 0.00 99 1009.1
20260509091133 49 344 1.0 4.0 0.00 0.03 0.00 99 1008.8
20260509090850 49 161 1.0 4.0 0.00 0.03 0.00 99 1008.9
20260509090138 49 68 2.0 2.0 0.00 0.03 0.00 99 1008.9
20260509085628 49 142 1.0 2.0 0.00 0.03 0.00 99 1009.0
20260509085127 49 41 2.0 2.0 0.00 0.03 0.00 99 1009.2
20260509084651 49 135 2.0 4.0 0.00 0.02 0.00 99 1009.2
20260509084628 49 109 1.0 4.0 0.00 0.03 0.00 99 1008.9
20260509083626 49 124 3.0 4.0 0.00 0.02 0.00 99 1008.9
20260509083127 49 125 1.0 2.0 0.00 0.02 0.00 99 1008.9
20260509082629 49 89 0.0 2.0 0.00 0.02 0.00 99 1008.9
20260509082126 49 123 2.0 3.0 0.00 0.02 0.00 99 1009.0
20260509081626 49 70 2.0 4.0 0.00 0.02 0.00 99 1009.1
20260509081130 49 146 1.0 4.0 0.00 0.02 0.00 99 1008.8
20260509080852 49 50 0.0 3.0 0.00 0.02 0.00 99 1009.0
20260509080359 49 72 1.0 3.0 0.00 0.02 0.00 99 1008.8
20260509075630 49 169 1.0 2.0 0.00 0.02 0.00 99 1009.1
20260509075127 49 97 1.0 2.0 0.00 0.02 0.00 99 1009.0
20260509074626 49 110 0.0 2.0 0.00 0.02 0.00 99 1008.9
20260509074351 49 135 0.0 2.0 0.00 0.02 0.00 99 1008.5
20260509073626 49 44 0.0 2.0 0.00 0.02 0.00 99 1008.6
20260509073126 49 29 0.0 2.0 0.00 0.02 0.00 99 1008.5
20260509072630 49 79 0.0 2.0 0.00 0.02 0.00 99 1008.3
20260509072351 49 100 1.0 2.0 0.00 0.02 0.00 99 1008.4
20260509071626 49 89 0.0 2.0 0.00 0.02 0.00 99 1008.4
20260509071132 49 290 0.0 2.0 0.00 0.02 0.00 99 1008.4
20260509070626 49 97 1.0 2.0 0.00 0.02 0.00 99 1008.3
20260509070125 49 55 0.0 3.0 0.00 0.02 0.00 99 1008.3
20260509065631 49 105 0.0 3.0 0.00 0.02 0.00 99 1008.4
20260509065125 49 49 0.0 2.0 0.00 0.02 0.00 99 1008.5
20260509064627 49 38 1.0 2.0 0.00 0.02 0.00 99 1008.5
20260509064130 49 89 0.0 2.0 0.00 0.02 0.00 99 1008.6
20260509064112 48 74 0.0 2.0 0.00 0.02 0.00 99 1008.7
20260509063125 49 123 1.0 2.0 0.00 0.02 0.00 99 1008.9
20260509062629 49 33 2.0 2.0 0.00 0.02 0.00 99 1009.0
20260509062127 49 283 0.0 2.0 0.00 0.02 0.00 99 1009.2
20260509061752 48 34 0.0 2.0 0.00 0.02 0.00 99 1009.0
20260509061748 49 41 2.0 2.0 0.00 0.02 0.00 99 1009.3
20260509061700 48 48 0.0 2.0 0.00 0.02 0.00 99 1009.1
20260509060128 49 350 1.0 2.0 0.00 0.02 0.00 99 1009.4
20260509055631 49 157 0.0 2.0 0.00 0.02 0.00 98 1009.6
20260509055125 49 69 0.0 2.0 0.00 0.02 0.00 98 1009.5
20260509054839 49 69 0.0 2.0 0.00 0.02 0.00 98 1009.6
20260509054726 49 57 0.0 2.0 0.00 0.02 0.00 98 1009.8
20260509053626 49 113 0.0 2.0 0.00 0.02 0.00 98 1009.6
20260509053127 49 89 0.0 2.0 0.00 0.02 0.00 98 1009.7
20260509052631 49 76 0.0 2.0 0.00 0.02 0.00 98 1009.7
20260509052126 49 65 0.0 2.0 0.00 0.02 0.00 98 1009.8
20260509051626 49 82 0.0 2.0 0.00 0.02 0.00 98 1009.8
20260509051352 49 82 1.0 2.0 0.00 0.02 0.00 98 1009.8
20260509050626 49 63 0.0 2.0 0.00 0.02 0.00 98 1009.8
20260509050126 49 38 0.0 2.0 0.00 0.02 0.00 98 1009.8
20260509045629 49 110 0.0 2.0 0.00 0.02 0.00 98 1009.7
20260509045126 49 64 0.0 2.0 0.00 0.02 0.00 98 1009.8
20260509044626 49 66 0.0 2.0 0.00 0.02 0.00 98 1009.8
20260509044130 49 61 0.0 2.0 0.00 0.02 0.00 98 1009.7
20260509043626 49 20 2.0 2.0 0.00 0.02 0.00 98 1009.9
20260509043126 49 91 0.0 2.0 0.00 0.02 0.00 98 1009.7
20260509042854 49 69 1.0 2.0 0.00 0.02 0.00 98 1010.0
20260509042125 49 80 2.0 2.0 0.00 0.02 0.00 98 1010.4
20260509041626 49 80 0.0 2.0 0.00 0.02 0.00 97 1010.2
20260509041130 49 58 0.0 2.0 0.00 0.02 0.00 97 1010.2
20260509040848 49 55 0.0 2.0 0.00 0.02 0.00 97 1010.2
20260509040127 50 57 1.0 2.0 0.00 0.02 0.00 97 1010.3
20260509035630 50 32 0.0 2.0 0.00 0.02 0.02 97 1010.3
20260509035126 50 45 0.0 2.0 0.01 0.02 0.02 97 1010.5
20260509034626 50 38 0.0 2.0 0.01 0.02 0.02 97 1010.8
20260509034130 50 97 0.0 2.0 0.01 0.02 0.02 97 1010.8
20260509033625 50 67 0.0 2.0 0.01 0.02 0.02 97 1010.8
20260509033355 50 55 0.0 2.0 0.02 0.02 0.02 97 1010.8
20260509032629 50 55 1.0 2.0 0.01 0.02 0.02 97 1011.0
20260509032127 51 74 1.0 2.0 0.01 0.02 0.02 97 1011.1
20260509031626 50 56 1.0 2.0 0.01 0.02 0.02 96 1011.1
20260509031129 51 62 0.0 5.0 0.01 0.02 0.02 96 1011.3
20260509030626 51 65 0.0 5.0 0.02 0.02 0.02 96 1011.3
20260509030356 51 312 2.0 5.0 0.02 0.02 0.02 96 1011.2
20260509025631 51 69 2.0 3.0 0.02 0.02 0.02 96 1011.4
20260509025125 51 126 0.0 2.0 0.01 0.02 0.02 96 1011.5
20260509024901 51 22 0.0 2.0 0.01 0.01 0.02 95 1011.6
20260509024129 51 49 2.0 2.0 0.01 0.01 0.01 95 1011.7
20260509023626 51 104 1.0 2.0 0.01 0.01 0.01 94 1011.5
20260509023126 51 55 0.0 2.0 0.00 0.01 0.01 94 1011.6
20260509022848 51 107 0.0 3.0 0.00 0.01 0.01 94 1011.5
20260509022126 51 81 1.0 3.0 0.00 0.01 0.01 93 1011.3
20260509021626 51 36 2.0 3.0 0.00 0.01 0.01 93 1011.3
20260509021129 51 103 1.0 2.0 0.00 0.01 0.01 93 1011.4
20260509020626 51 28 1.0 2.0 0.00 0.00 0.00 92 1011.3
20260509020359 51 61 1.0 2.0 0.00 0.00 0.00 91 1011.1
20260509020225 51 82 1.0 2.0 0.00 0.00 0.00 91 1011.2
20260509015126 51 214 0.0 3.0 0.00 0.00 0.00 91 1010.8
20260509014628 51 69 0.0 3.0 0.00 0.00 0.00 89 1010.8
20260509014349 52 36 2.0 3.0 0.00 0.00 0.00 89 1010.8
20260509013626 52 104 0.0 2.0 0.00 0.00 0.00 87 1010.6
20260509013355 52 135 0.0 3.0 0.00 0.00 0.00 86 1010.6
20260509012629 52 64 1.0 3.0 0.00 0.00 0.00 84 1010.6
20260509012125 53 16 1.0 2.0 0.00 0.00 0.00 85 1010.5
20260509011626 53 120 2.0 2.0 0.00 0.00 0.00 83 1010.2
20260509011129 52 109 0.0 3.0 0.00 0.00 0.00 81 1010.5
20260509010625 52 341 2.0 3.0 0.00 0.00 0.00 81 1010.1
20260509010127 53 112 1.0 4.0 0.00 0.00 0.00 82 1010.2
20260509005629 53 28 2.0 4.0 0.00 0.00 0.00 81 1010.0
20260509005139 53 76 0.0 2.0 0.00 0.00 0.00 82 1010.0
20260509004625 53 47 0.0 2.0 0.00 0.00 0.00 81 1010.0
20260509004130 53 31 2.0 2.0 0.00 0.00 0.00 81 1009.6
20260509003627 53 55 0.0 2.0 0.00 0.00 0.00 80 1009.8
20260509003126 53 89 0.0 2.0 0.00 0.00 0.00 80 1009.9
20260509002853 54 114 0.0 2.0 0.00 0.00 0.00 81 1010.2
20260509002125 54 55 0.0 3.0 0.00 0.00 0.00 77 1009.6
20260509001626 54 56 2.0 3.0 0.00 0.00 0.00 76 1009.9
20260509001129 54 65 1.0 3.0 0.00 0.00 0.00 77 1009.8
20260509000627 54 79 1.0 2.0 0.00 0.00 0.00 78 1009.7
20260509000127 54 82 1.0 2.0 0.00 0.00 0.00 80 1009.9
20260508235630 54 116 1.0 2.0 0.00 0.00 0.00 81 1010.0
20260508235125 54 47 1.0 2.0 0.00 0.00 0.00 81 1009.9
20260508234630 54 64 1.0 2.0 0.00 0.00 0.00 82 1009.9
20260508234130 54 124 0.0 2.0 0.00 0.00 0.00 81 1010.0
20260508233626 54 48 0.0 2.0 0.00 0.00 0.00 81 1010.1
20260508233126 54 83 1.0 2.0 0.00 0.00 0.00 79 1010.3
20260508232631 54 66 0.0 2.0 0.00 0.00 0.00 79 1010.2
20260508232125 55 50 0.0 2.0 0.00 0.00 0.00 80 1010.2
20260508231859 55 33 0.0 2.0 0.00 0.00 0.00 81 1009.9
20260508231618 55 46 0.0 2.0 0.00 0.00 0.00 81 1010.0
20260508230626 55 32 1.0 2.0 0.00 0.00 0.00 81 1009.9
20260508230126 55 106 0.0 2.0 0.00 0.00 0.00 80 1010.2
20260508225848 55 69 0.0 2.0 0.00 0.00 0.00 80 1009.9
20260508225348 55 46 0.0 2.0 0.00 0.00 0.00 80 1010.4
20260508224626 55 122 1.0 2.0 0.00 0.00 0.00 79 1010.2
20260508224129 55 89 0.0 2.0 0.00 0.00 0.00 77 1010.3
20260508223629 55 66 0.0 2.0 0.00 0.00 0.00 77 1010.2
20260508223126 55 50 0.0 2.0 0.00 0.00 0.00 76 1010.1
20260508222631 55 73 0.0 2.0 0.00 0.00 0.00 74 1010.2
20260508222126 55 55 0.0 2.0 0.00 0.00 0.00 73 1010.1
20260508221626 56 45 2.0 2.0 0.00 0.00 0.00 72 1010.1
20260508221407 56 58 0.0 2.0 0.00 0.00 0.00 70 1010.1
20260508220626 57 33 1.0 2.0 0.00 0.00 0.00 68 1010.0
20260508220126 57 32 1.0 2.0 0.00 0.00 0.00 66 1010.0
20260508215629 57 142 0.0 2.0 0.00 0.00 0.00 62 1010.0
20260508215126 57 148 0.0 3.0 0.00 0.00 0.00 63 1010.1
20260508214627 57 19 0.0 3.0 0.00 0.00 0.00 65 1010.0
20260508214129 57 339 0.0 3.0 0.00 0.00 0.00 66 1010.2
20260508213628 57 139 2.0 3.0 0.00 0.00 0.00 65 1010.2
20260508213354 57 58 0.0 3.0 0.00 0.00 0.00 65 1010.1
20260508212631 58 359 2.0 4.0 0.00 0.00 0.00 65 1010.2
20260508212127 58 89 0.0 4.0 0.00 0.00 0.00 65 1010.5
20260508211856 57 224 0.0 4.0 0.00 0.00 0.00 65 1010.3
20260508211129 58 80 2.0 4.0 0.00 0.00 0.00 66 1010.4
20260508210627 58 311 0.0 4.0 0.00 0.00 0.00 67 1010.5
20260508210126 57 55 0.0 4.0 0.00 0.00 0.00 67 1010.5
20260508205629 56 153 0.0 3.0 0.00 0.00 0.00 66 1010.6
20260508205125 57 127 1.0 4.0 0.00 0.00 0.00 68 1010.7
20260508204626 56 151 3.0 4.0 0.00 0.00 0.00 67 1010.9
20260508204350 57 133 1.0 3.0 0.00 0.00 0.00 68 1010.9
20260508203626 57 341 0.0 3.0 0.00 0.00 0.00 69 1010.9
20260508203125 56 141 0.0 3.0 0.00 0.00 0.00 70 1011.0
20260508202611 57 124 2.0 3.0 0.00 0.00 0.00 72 1010.9
20260508202113 56 70 2.0 3.0 0.00 0.00 0.00 74 1011.0
20260508201615 56 113 0.0 2.0 0.00 0.00 0.00 75 1011.2